Time,TemperatureF,DewpointF,PressureIn,WindDirection,WindDirectionDegrees,WindSpeedMPH,WindSpeedGustMPH,Humidity,HourlyPrecipIn,Conditions,Clouds,dailyrainin,SoftwareType,DateUTC
2011-05-29 00:05:00,70.0,34.2,29.56,West,270,5.6,5.6,27,0.00,,,0.00,open2300-1.11,2011-05-29 06:05:00,
2011-05-29 00:14:00,69.6,34.9,29.57,SW,225,0.7,5.6,28,0.00,,,0.00,open2300-1.11,2011-05-29 06:14:00,
2011-05-29 00:24:00,69.6,35.9,29.57,SW,225,3.1,4.9,29,0.00,,,0.00,open2300-1.11,2011-05-29 06:24:00,
2011-05-29 00:34:00,69.4,35.7,29.57,SW,225,4.9,4.9,29,0.00,,,0.00,open2300-1.11,2011-05-29 06:34:00,
2011-05-29 00:44:00,69.1,35.4,29.57,SW,225,0.0,4.9,29,0.00,,,0.00,open2300-1.11,2011-05-29 06:44:00,
2011-05-29 00:55:00,68.5,35.9,29.56,SE,135,0.0,2.7,30,0.00,,,0.00,open2300-1.11,2011-05-29 06:55:00,
2011-05-29 01:04:00,68.0,35.4,29.57,WSW,247,0.0,0.0,30,0.00,,,0.00,open2300-1.11,2011-05-29 07:04:00,
2011-05-29 01:14:00,67.5,35.0,29.56,West,270,0.0,1.6,30,0.00,,,0.00,open2300-1.11,2011-05-29 07:14:00,
2011-05-29 01:25:00,67.1,35.4,29.56,WSW,247,0.0,0.0,31,0.00,,,0.00,open2300-1.11,2011-05-29 07:25:00,
2011-05-29 01:34:00,66.7,35.1,29.56,SSW,202,5.8,5.8,31,0.00,,,0.00,open2300-1.11,2011-05-29 07:34:00,
2011-05-29 01:45:00,66.9,34.6,29.55,WSW,247,0.0,5.8,30,0.00,,,0.00,open2300-1.11,2011-05-29 07:45:00,
2011-05-29 01:55:00,66.7,35.1,29.56,WSW,247,0.0,2.7,31,0.00,,,0.00,open2300-1.11,2011-05-29 07:55:00,
2011-05-29 02:04:00,66.7,34.4,29.55,SW,225,5.1,5.1,30,0.00,,,0.00,open2300-1.11,2011-05-29 08:04:00,
2011-05-29 02:14:00,66.7,34.4,29.55,West,270,0.0,6.5,30,0.00,,,0.00,open2300-1.11,2011-05-29 08:14:00,
2011-05-29 02:25:00,66.4,34.1,29.55,NNW,337,4.7,4.7,30,0.00,,,0.00,open2300-1.11,2011-05-29 08:25:00,
2011-05-29 02:34:00,66.2,34.0,29.55,West,270,5.8,6.5,30,0.00,,,0.00,open2300-1.11,2011-05-29 08:34:00,
2011-05-29 02:45:00,66.0,33.8,29.55,NW,315,0.0,5.8,30,0.00,,,0.00,open2300-1.11,2011-05-29 08:45:00,
2011-05-29 02:54:00,65.5,34.0,29.55,West,270,0.0,2.5,31,0.00,,,0.00,open2300-1.11,2011-05-29 08:54:00,
2011-05-29 03:05:00,65.1,33.7,29.55,WSW,247,0.0,2.9,31,0.00,,,0.00,open2300-1.11,2011-05-29 09:05:00,
2011-05-29 03:14:00,64.9,32.8,29.56,SE,135,0.0,0.0,30,0.00,,,0.00,open2300-1.11,2011-05-29 09:14:00,
2011-05-29 03:24:00,64.9,31.8,29.55,WSW,247,0.0,2.0,29,0.00,,,0.00,open2300-1.11,2011-05-29 09:24:00,
2011-05-29 03:35:00,64.9,33.6,29.55,WSW,247,2.5,2.5,31,0.00,,,0.00,open2300-1.11,2011-05-29 09:35:00,
2011-05-29 03:45:00,64.9,31.8,29.55,SSW,202,0.0,7.2,29,0.00,,,0.00,open2300-1.11,2011-05-29 09:45:00,
2011-05-29 03:54:00,64.9,31.8,29.55,WSW,247,3.6,6.3,29,0.00,,,0.00,open2300-1.11,2011-05-29 09:54:00,
2011-05-29 04:05:00,64.9,31.8,29.55,NE,45,0.0,3.6,29,0.00,,,0.00,open2300-1.11,2011-05-29 10:05:00,
2011-05-29 04:15:00,64.8,32.7,29.55,SSW,202,5.4,5.4,30,0.00,,,0.00,open2300-1.11,2011-05-29 10:15:00,
2011-05-29 04:24:00,64.8,33.4,29.54,WSW,247,0.0,5.8,31,0.00,,,0.00,open2300-1.11,2011-05-29 10:24:00,
2011-05-29 04:34:00,64.6,33.2,29.55,SSE,157,0.0,4.7,31,0.00,,,0.00,open2300-1.11,2011-05-29 10:34:00,
2011-05-29 04:45:00,64.2,32.9,29.55,South,180,0.0,1.3,31,0.00,,,0.00,open2300-1.11,2011-05-29 10:45:00,
2011-05-29 04:55:00,64.2,32.9,29.55,West,270,2.0,2.0,31,0.00,,,0.00,open2300-1.11,2011-05-29 10:55:00,
2011-05-29 05:04:00,64.0,32.8,29.54,East,90,2.2,2.2,31,0.00,,,0.00,open2300-1.11,2011-05-29 11:04:00,
2011-05-29 05:14:00,64.0,33.5,29.54,East,90,0.0,4.2,32,0.00,,,0.00,open2300-1.11,2011-05-29 11:14:00,
2011-05-29 05:25:00,63.7,33.2,29.54,East,90,0.0,4.9,32,0.00,,,0.00,open2300-1.11,2011-05-29 11:25:00,
2011-05-29 05:35:00,63.7,33.2,29.54,SSE,157,0.0,0.7,32,0.00,,,0.00,open2300-1.11,2011-05-29 11:35:00,
2011-05-29 05:45:00,63.7,33.9,29.54,South,180,4.7,4.7,33,0.00,,,0.00,open2300-1.11,2011-05-29 11:45:00,
2011-05-29 05:55:00,64.0,34.2,29.55,South,180,0.0,4.7,33,0.00,,,0.00,open2300-1.11,2011-05-29 11:55:00,
2011-05-29 06:05:00,64.0,33.5,29.55,South,180,0.0,2.5,32,0.00,,,0.00,open2300-1.11,2011-05-29 12:05:00,
2011-05-29 06:14:00,64.2,33.6,29.55,SSW,202,0.0,4.7,32,0.00,,,0.00,open2300-1.11,2011-05-29 12:14:00,
2011-05-29 06:24:00,64.2,32.9,29.55,WNW,292,0.0,2.9,31,0.00,,,0.00,open2300-1.11,2011-05-29 12:24:00,
2011-05-29 06:35:00,64.6,32.5,29.55,SW,225,3.6,5.4,30,0.00,,,0.00,open2300-1.11,2011-05-29 12:35:00,
2011-05-29 06:44:00,64.6,33.2,29.55,WSW,247,0.0,4.5,31,0.00,,,0.00,open2300-1.11,2011-05-29 12:44:00,
2011-05-29 06:55:00,64.6,31.5,29.56,SSW,202,0.0,0.0,29,0.00,,,0.00,open2300-1.11,2011-05-29 12:55:00,
2011-05-29 07:05:00,64.6,33.2,29.55,SSE,157,1.1,1.1,31,0.00,,,0.00,open2300-1.11,2011-05-29 13:05:00,
2011-05-29 07:15:00,64.8,33.4,29.55,SSW,202,1.8,6.9,31,0.00,,,0.00,open2300-1.11,2011-05-29 13:15:00,
2011-05-29 07:24:00,65.3,33.9,29.55,SSE,157,0.0,1.8,31,0.00,,,0.00,open2300-1.11,2011-05-29 13:24:00,
2011-05-29 07:34:00,65.7,33.5,29.55,SW,225,7.2,7.2,30,0.00,,,0.00,open2300-1.11,2011-05-29 13:34:00,
2011-05-29 07:45:00,66.0,34.5,29.55,SSW,202,0.9,7.2,31,0.00,,,0.00,open2300-1.11,2011-05-29 13:45:00,
2011-05-29 07:55:00,66.4,34.8,29.55,WSW,247,0.0,4.7,31,0.00,,,0.00,open2300-1.11,2011-05-29 13:55:00,
2011-05-29 08:05:00,66.7,35.1,29.56,WSW,247,4.2,6.9,31,0.00,,,0.00,open2300-1.11,2011-05-29 14:05:00,
2011-05-29 08:15:00,67.1,35.4,29.56,WNW,292,4.9,7.4,31,0.00,,,0.00,open2300-1.11,2011-05-29 14:15:00,
2011-05-29 08:25:00,67.6,35.1,29.55,SSE,157,0.9,4.9,30,0.00,,,0.00,open2300-1.11,2011-05-29 14:25:00,
2011-05-29 08:35:00,67.8,35.3,29.55,SE,135,0.0,0.9,30,0.00,,,0.00,open2300-1.11,2011-05-29 14:35:00,
2011-05-29 08:45:00,68.2,34.6,29.55,SSE,157,0.0,5.8,29,0.00,,,0.00,open2300-1.11,2011-05-29 14:45:00,
2011-05-29 08:55:00,68.7,34.1,29.55,SW,225,6.9,7.4,28,0.00,,,0.00,open2300-1.11,2011-05-29 14:55:00,
2011-05-29 09:05:00,68.9,33.2,29.55,West,270,7.2,9.8,27,0.00,,,0.00,open2300-1.11,2011-05-29 15:05:00,
2011-05-29 09:15:00,69.6,32.8,29.55,SE,135,2.5,7.2,26,0.00,,,0.00,open2300-1.11,2011-05-29 15:15:00,
2011-05-29 09:24:00,70.0,33.2,29.55,WSW,247,0.0,10.1,26,0.00,,,0.00,open2300-1.11,2011-05-29 15:24:00,
2011-05-29 09:35:00,70.3,33.5,29.55,ESE,112,2.2,8.9,26,0.00,,,0.00,open2300-1.11,2011-05-29 15:35:00,
2011-05-29 09:45:00,70.9,32.9,29.55,NW,315,0.4,8.7,25,0.00,,,0.00,open2300-1.11,2011-05-29 15:45:00,
2011-05-29 09:54:00,71.2,33.2,29.54,SSE,157,3.6,9.4,25,0.00,,,0.00,open2300-1.11,2011-05-29 15:54:00,
2011-05-29 10:04:00,71.8,32.7,29.54,SW,225,3.8,5.8,24,0.00,,,0.00,open2300-1.11,2011-05-29 16:04:00,
2011-05-29 10:15:00,72.1,33.0,29.53,WSW,247,13.4,13.4,24,0.00,,,0.00,open2300-1.11,2011-05-29 16:15:00,
2011-05-29 10:25:00,72.7,34.5,29.53,SSW,202,0.0,13.4,25,0.00,,,0.00,open2300-1.11,2011-05-29 16:25:00,
2011-05-29 10:34:00,73.0,33.7,29.53,South,180,0.0,6.0,24,0.00,,,0.00,open2300-1.11,2011-05-29 16:34:00,
2011-05-29 10:45:00,73.6,34.2,29.53,SSW,202,3.1,5.4,24,0.00,,,0.00,open2300-1.11,2011-05-29 16:45:00,
2011-05-29 10:55:00,73.9,34.5,29.53,East,90,5.1,6.7,24,0.00,,,0.00,open2300-1.11,2011-05-29 16:55:00,
2011-05-29 11:05:00,74.5,33.9,29.53,SSE,157,2.7,5.6,23,0.00,,,0.00,open2300-1.11,2011-05-29 17:05:00,
2011-05-29 11:15:00,75.0,34.4,29.52,SSE,157,0.0,6.3,23,0.00,,,0.00,open2300-1.11,2011-05-29 17:15:00,
2011-05-29 11:25:00,75.7,35.0,29.50,NNE,22,0.0,4.0,23,0.00,,,0.00,open2300-1.11,2011-05-29 17:25:00,
2011-05-29 11:35:00,76.3,33.3,29.51,SW,225,0.0,5.4,21,0.00,,,0.00,open2300-1.11,2011-05-29 17:35:00,
2011-05-29 11:45:00,76.6,29.3,29.50,South,180,3.4,12.5,18,0.00,,,0.00,open2300-1.11,2011-05-29 17:45:00,
2011-05-29 11:54:00,77.2,29.7,29.51,WNW,292,11.6,11.6,18,0.00,,,0.00,open2300-1.11,2011-05-29 17:54:00,
2011-05-29 12:05:00,77.5,33.3,29.51,WNW,292,8.3,16.5,20,0.00,,,0.00,open2300-1.11,2011-05-29 18:05:00,
2011-05-29 12:14:00,77.9,33.6,29.51,WSW,247,2.9,8.3,20,0.00,,,0.00,open2300-1.11,2011-05-29 18:14:00,
2011-05-29 12:25:00,78.6,34.2,29.50,West,270,0.0,7.6,20,0.00,,,0.00,open2300-1.11,2011-05-29 18:25:00,
2011-05-29 12:35:00,79.5,31.6,29.51,WSW,247,5.1,5.4,18,0.00,,,0.00,open2300-1.11,2011-05-29 18:35:00,
2011-05-29 12:45:00,79.7,31.8,29.50,SSE,157,3.1,5.1,18,0.00,,,0.00,open2300-1.11,2011-05-29 18:45:00,
2011-05-29 12:55:00,80.1,32.1,29.50,SSE,157,8.7,8.7,18,0.00,,,0.00,open2300-1.11,2011-05-29 18:55:00,
2011-05-29 13:05:00,80.4,34.1,29.49,ENE,67,0.0,8.7,19,0.00,,,0.00,open2300-1.11,2011-05-29 19:05:00,
2011-05-29 13:15:00,81.0,34.6,29.49,SW,225,4.2,6.9,19,0.00,,,0.00,open2300-1.11,2011-05-29 19:15:00,
2011-05-29 13:25:00,81.1,31.3,29.48,SE,135,5.8,5.8,17,0.00,,,0.00,open2300-1.11,2011-05-29 19:25:00,
2011-05-29 13:35:00,81.7,35.1,29.47,SE,135,0.4,5.8,19,0.00,,,0.00,open2300-1.11,2011-05-29 19:35:00,
2011-05-29 13:45:00,82.2,35.6,29.47,SSW,202,2.9,4.5,19,0.00,,,0.00,open2300-1.11,2011-05-29 19:45:00,
2011-05-29 13:55:00,82.8,32.6,29.47,WSW,247,1.3,6.9,17,0.00,,,0.00,open2300-1.11,2011-05-29 19:55:00,
2011-05-29 14:05:00,83.1,31.2,29.48,West,270,13.9,13.9,16,0.00,,,0.00,open2300-1.11,2011-05-29 20:05:00,
2011-05-29 14:15:00,82.9,29.3,29.47,SSW,202,2.2,13.9,15,0.00,,,0.00,open2300-1.11,2011-05-29 20:15:00,
2011-05-29 15:04:00,83.1,31.2,29.47,SSW,202,5.6,8.3,16,0.00,,,0.00,open2300-1.11,2011-05-29 21:04:00,
2011-05-29 15:15:00,83.5,31.4,29.47,WSW,247,13.6,13.6,16,0.00,,,0.00,open2300-1.11,2011-05-29 21:15:00,
2011-05-29 15:25:00,82.6,29.1,29.47,WNW,292,7.8,13.6,15,0.00,,,0.00,open2300-1.11,2011-05-29 21:25:00,
2011-05-29 15:35:00,82.0,30.3,29.47,West,270,8.3,10.1,16,0.00,,,0.00,open2300-1.11,2011-05-29 21:35:00,
2011-05-29 15:45:00,81.7,30.1,29.47,South,180,1.6,8.3,16,0.00,,,0.00,open2300-1.11,2011-05-29 21:45:00,
2011-05-29 15:54:00,80.8,31.0,29.46,West,270,4.9,8.1,17,0.00,,,0.00,open2300-1.11,2011-05-29 21:54:00,
2011-05-29 16:04:00,80.4,30.7,29.47,SSW,202,0.0,7.8,17,0.00,,,0.00,open2300-1.11,2011-05-29 22:04:00,
2011-05-29 16:14:00,80.4,30.7,29.47,West,270,9.6,9.6,17,0.00,,,0.00,open2300-1.11,2011-05-29 22:14:00,
2011-05-29 16:25:00,80.2,30.6,29.46,South,180,2.0,9.6,17,0.00,,,0.00,open2300-1.11,2011-05-29 22:25:00,
2011-05-29 16:35:00,80.2,30.6,29.47,West,270,1.8,8.1,17,0.00,,,0.00,open2300-1.11,2011-05-29 22:35:00,
2011-05-29 16:45:00,80.4,30.7,29.46,WSW,247,6.5,9.8,17,0.00,,,0.00,open2300-1.11,2011-05-29 22:45:00,
2011-05-29 16:55:00,80.6,32.6,29.47,West,270,0.0,7.8,18,0.00,,,0.00,open2300-1.11,2011-05-29 22:55:00,
2011-05-29 17:05:00,80.2,30.6,29.47,SW,225,4.9,12.3,17,0.00,,,0.00,open2300-1.11,2011-05-29 23:05:00,
2011-05-29 17:15:00,80.2,30.6,29.46,SSW,202,5.4,8.3,17,0.00,,,0.00,open2300-1.11,2011-05-29 23:15:00,
2011-05-29 17:25:00,80.2,32.2,29.47,SW,225,6.0,8.7,18,0.00,,,0.00,open2300-1.11,2011-05-29 23:25:00,
2011-05-29 17:35:00,79.9,30.2,29.47,West,270,7.8,8.3,17,0.00,,,0.00,open2300-1.11,2011-05-29 23:35:00,
2011-05-29 17:45:00,79.5,29.9,29.47,SSW,202,5.6,8.7,17,0.00,,,0.00,open2300-1.11,2011-05-29 23:45:00,
2011-05-29 17:55:00,79.3,29.8,29.47,West,270,0.0,9.6,17,0.00,,,0.00,open2300-1.11,2011-05-29 23:55:00,
2011-05-29 18:05:00,78.6,30.9,29.47,WNW,292,6.5,9.8,18,0.00,,,0.00,open2300-1.11,2011-05-30 00:05:00,
2011-05-29 18:14:00,78.1,28.8,29.48,WSW,247,9.4,9.4,17,0.00,,,0.00,open2300-1.11,2011-05-30 00:14:00,
2011-05-29 18:25:00,78.1,30.4,29.48,WSW,247,0.0,9.4,18,0.00,,,0.00,open2300-1.11,2011-05-30 00:25:00,
2011-05-29 18:35:00,77.5,30.0,29.48,SW,225,5.8,10.3,18,0.00,,,0.00,open2300-1.11,2011-05-30 00:35:00,
2011-05-29 18:45:00,77.0,29.6,29.48,WSW,247,5.6,13.2,18,0.00,,,0.00,open2300-1.11,2011-05-30 00:45:00,
2011-05-29 18:55:00,76.8,29.4,29.49,WSW,247,4.0,5.6,18,0.00,,,0.00,open2300-1.11,2011-05-30 00:55:00,
2011-05-29 19:05:00,75.9,28.7,29.49,SW,225,1.8,4.9,18,0.00,,,0.00,open2300-1.11,2011-05-30 01:05:00,
2011-05-29 19:15:00,75.4,28.3,29.50,WSW,247,1.1,11.9,18,0.00,,,0.00,open2300-1.11,2011-05-30 01:15:00,
2011-05-29 19:25:00,75.0,31.3,29.50,West,270,5.8,6.0,20,0.00,,,0.00,open2300-1.11,2011-05-30 01:25:00,
2011-05-29 19:35:00,74.7,27.7,29.50,WNW,292,0.0,6.5,18,0.00,,,0.00,open2300-1.11,2011-05-30 01:35:00,
2011-05-29 19:44:00,74.1,28.9,29.50,WNW,292,2.9,7.6,19,0.00,,,0.00,open2300-1.11,2011-05-30 01:44:00,
2011-05-29 21:05:00,70.2,29.3,29.53,SW,225,6.0,6.0,22,0.00,,,0.00,open2300-1.11,2011-05-30 03:05:00,
2011-05-29 21:15:00,69.6,29.8,29.54,SW,225,0.0,6.9,23,0.00,,,0.00,open2300-1.11,2011-05-30 03:15:00,
2011-05-29 21:25:00,69.4,29.7,29.55,WSW,247,0.0,5.8,23,0.00,,,0.00,open2300-1.11,2011-05-30 03:25:00,
2011-05-29 21:35:00,69.1,30.4,29.55,WSW,247,2.0,5.1,24,0.00,,,0.00,open2300-1.11,2011-05-30 03:35:00,